Buckeye, AZ

11:01 PM MST on January 23, 2018 (GMT -0700)
Buckeye Municipal

Weather History for KBXK - October, 2012

Change the Weather History Date:

Tuesday, October 16, 2012

  Actual Average (KGYR) Record (KGYR)
Temperature  
Mean Temperature 75 °F -  
Max Temperature 91 °F 86 °F 96 °F (1996)
Min Temperature 59 °F 58 °F 37 °F (2017)
Cooling Degree Days 10    
Growing Degree Days 25 (Base 50)    
Moisture  
Dew Point 35 °F    
Average Humidity 24    
Maximum Humidity 37    
Minimum Humidity 15    
Precipitation  
Precipitation 0.00 in - - ()
Sea Level Pressure  
Sea Level Pressure 29.82 in    
Wind  
Wind Speed 5 mph (WSW)    
Max Wind Speed 12 mph    
Max Gust Speed -    
Visibility 10 miles    
Events      
Averages and records for this station are not official NWS values.
T = Trace of Precipitation, MM = Missing Value Source: NWS Daily Summary

Daily Weather History Graph

Daily Weather History Graph

Search for Another Location

Airport or City:

Trip Planner

Search our weather history database for the weather conditions in past years. The results will help you decide how hot, cold, wet, or windy it might be!

Date:

Astronomy

Oct. 16, 2012 Rise Set
Actual Time 6:36 AM MST 5:55 PM MST
Civil Twilight 6:11 AM MST 6:20 PM MST
Nautical Twilight 5:42 AM MST 6:49 PM MST
Astronomical Twilight 5:13 AM MST 7:17 PM MST
Moon 7:57 AM MST (10/16) 6:50 PM MST (10/16)
Length of Visible Light 12h 08m
Length of Day
11h 18m
New Moon, 2% of the Moon is Illuminated
Oct 16
New Moon
Oct 21
First Quarter
Oct 29
Full
Nov 6
Last Quarter
Nov 13
New

Hourly Weather History & Observations

Time (MST) Temp. Dew Point Humidity Pressure Visibility Wind Dir Wind Speed Gust Speed Precip Events Conditions
12:15 AM 66.2 °F 32.0 °F 28% 29.86 in 10.0 mi WSW 8.1 mph - N/A   Clear
12:35 AM 66.2 °F 30.2 °F 26% 29.86 in 10.0 mi WNW 5.8 mph - N/A   Clear
12:55 AM 62.6 °F 32.0 °F 32% 29.86 in 10.0 mi West 4.6 mph - N/A   Clear
1:15 AM 71.6 °F 32.0 °F 23% 29.86 in 10.0 mi NW 9.2 mph - N/A   Clear
1:35 AM 71.6 °F 32.0 °F 23% 29.86 in 10.0 mi WNW 11.5 mph - N/A   Clear
1:55 AM 69.8 °F 32.0 °F 25% 29.86 in 10.0 mi NNW 8.1 mph - N/A   Clear
2:15 AM 66.2 °F 32.0 °F 28% 29.85 in 10.0 mi NW 8.1 mph - N/A   Clear
2:35 AM 66.2 °F 32.0 °F 28% 29.86 in 10.0 mi ENE 5.8 mph - N/A   Clear
3:15 AM 62.6 °F 33.8 °F 34% 29.84 in 10.0 mi Calm Calm - N/A   Clear
3:35 AM 64.4 °F 33.8 °F 32% 29.84 in 10.0 mi NNE 3.5 mph - N/A   Clear
4:15 AM 64.4 °F 32.0 °F 30% 29.84 in 10.0 mi Calm Calm - N/A   Clear
4:35 AM 62.6 °F 35.6 °F 37% 29.85 in 10.0 mi Calm Calm - N/A   Clear
5:15 AM 60.8 °F 32.0 °F 34% 29.85 in 10.0 mi NW 3.5 mph - N/A   Clear
5:35 AM 59.0 °F 32.0 °F 36% 29.85 in 10.0 mi NW 5.8 mph - N/A   Clear
5:55 AM 59.0 °F 32.0 °F 36% 29.87 in 10.0 mi West 5.8 mph - N/A   Clear
6:35 AM 59.0 °F 32.0 °F 36% 29.88 in 10.0 mi NW 3.5 mph - N/A   Clear
6:55 AM 59.0 °F 32.0 °F 36% 29.88 in 10.0 mi NW 5.8 mph - N/A   Clear
7:15 AM 62.6 °F 32.0 °F 32% 29.88 in 10.0 mi Calm Calm - N/A   Clear
7:35 AM 64.4 °F 35.6 °F 34% 29.89 in 10.0 mi Calm Calm - N/A   Clear
7:55 AM 66.2 °F 35.6 °F 32% 29.89 in 10.0 mi Calm Calm - N/A   Clear
8:15 AM 68.0 °F 37.4 °F 33% 29.89 in 10.0 mi SE 3.5 mph - N/A   Clear
9:15 AM 69.8 °F 41.0 °F 35% 29.90 in 10.0 mi Calm Calm - N/A   Clear
9:35 AM 73.4 °F 42.8 °F 33% 29.90 in 10.0 mi SE 4.6 mph - N/A   Clear
9:55 AM 75.2 °F 39.2 °F 27% 29.89 in 10.0 mi ESE 5.8 mph - N/A   Clear
10:15 AM 77.0 °F 37.4 °F 24% 29.89 in 10.0 mi SSE 4.6 mph - N/A   Clear
10:35 AM 80.6 °F 35.6 °F 20% 29.89 in 10.0 mi South 3.5 mph - N/A   Clear
10:55 AM 82.4 °F 37.4 °F 20% 29.88 in 10.0 mi SE 5.8 mph - N/A   Clear
11:15 AM 82.4 °F 35.6 °F 19% 29.87 in 10.0 mi SE 4.6 mph - N/A   Clear
11:35 AM 82.4 °F 37.4 °F 20% 29.87 in 10.0 mi SE 4.6 mph - N/A   Clear
11:55 AM 84.2 °F 37.4 °F 19% 29.85 in 10.0 mi SE 3.5 mph - N/A   Clear
12:15 PM 84.2 °F 35.6 °F 18% 29.85 in 10.0 mi WSW 3.5 mph - N/A   Clear
12:35 PM 86.0 °F 39.2 °F 19% 29.84 in 10.0 mi South 5.8 mph - N/A   Clear
12:55 PM 86.0 °F 35.6 °F 17% 29.82 in 10.0 mi South 4.6 mph - N/A   Clear
1:15 PM 86.0 °F 35.6 °F 17% 29.81 in 10.0 mi South 3.5 mph - N/A   Clear
1:55 PM 87.8 °F 37.4 °F 17% 29.79 in 10.0 mi South 3.5 mph - N/A   Clear
2:15 PM 87.8 °F 35.6 °F 16% 29.78 in 10.0 mi SSE 3.5 mph - N/A   Clear
2:35 PM 89.6 °F 37.4 °F 16% 29.78 in 10.0 mi South 4.6 mph - N/A   Clear
2:55 PM 89.6 °F 35.6 °F 15% 29.78 in 10.0 mi SSE 3.5 mph - N/A   Clear
3:15 PM 89.6 °F 37.4 °F 16% 29.77 in 10.0 mi SSE 4.6 mph - N/A   Clear
3:35 PM 91.4 °F 37.4 °F 15% 29.76 in 10.0 mi South 4.6 mph - N/A   Clear
4:15 PM 91.4 °F 37.4 °F 15% 29.76 in 10.0 mi SW 6.9 mph - N/A   Clear
4:35 PM 91.4 °F 37.4 °F 15% 29.75 in 10.0 mi SW 5.8 mph - N/A   Clear
4:55 PM 91.4 °F 37.4 °F 15% 29.75 in 10.0 mi SW 3.5 mph - N/A   Clear
5:15 PM 91.4 °F 37.4 °F 15% 29.74 in 10.0 mi SSW 4.6 mph - N/A   Clear
5:35 PM 87.8 °F 37.4 °F 17% 29.74 in 10.0 mi SW 3.5 mph - N/A   Clear
5:55 PM 84.2 °F 41.0 °F 22% 29.74 in 10.0 mi SW 3.5 mph - N/A   Clear
6:15 PM 84.2 °F 41.0 °F 22% 29.74 in 10.0 mi Calm Calm - N/A   Clear
6:35 PM 80.6 °F 41.0 °F 24% 29.75 in 10.0 mi Calm Calm - N/A   Clear
6:55 PM 80.6 °F 39.2 °F 23% 29.75 in 10.0 mi Calm Calm - N/A   Clear
7:15 PM 77.0 °F 37.4 °F 24% 29.75 in 10.0 mi Calm Calm - N/A   Clear
7:35 PM 78.8 °F 35.6 °F 21% 29.76 in 10.0 mi Calm Calm - N/A   Clear
7:55 PM 75.2 °F 32.0 °F 21% 29.76 in 10.0 mi Calm Calm - N/A   Clear
8:15 PM 75.2 °F 32.0 °F 21% 29.77 in 10.0 mi NW 3.5 mph - N/A   Clear
8:35 PM 75.2 °F 32.0 °F 21% 29.77 in 10.0 mi NW 3.5 mph - N/A   Clear
8:55 PM 75.2 °F 32.0 °F 21% 29.78 in 10.0 mi NW 3.5 mph - N/A   Clear
9:15 PM 73.4 °F 32.0 °F 22% 29.78 in 10.0 mi NW 3.5 mph - N/A   Clear
9:55 PM 73.4 °F 32.0 °F 22% 29.79 in 10.0 mi NNW 4.6 mph - N/A   Clear
10:15 PM 71.6 °F 32.0 °F 23% 29.79 in 10.0 mi North 5.8 mph - N/A   Clear
10:35 PM 71.6 °F 32.0 °F 23% 29.79 in 10.0 mi North 6.9 mph - N/A   Clear
10:55 PM 69.8 °F 32.0 °F 25% 29.79 in 10.0 mi North 3.5 mph - N/A   Clear
11:15 PM 69.8 °F 32.0 °F 25% 29.79 in 10.0 mi NNE 4.6 mph - N/A   Clear
11:35 PM 68.0 °F 32.0 °F 26% 29.78 in 10.0 mi North 5.8 mph - N/A   Clear
11:55 PM 66.2 °F 32.0 °F 28% 29.79 in 10.0 mi NNW 6.9 mph - N/A   Clear